EW2281 Weather Reports


time (UTC)temp
C
wind
direction
speed
KPH
gust
KPH
rain 1hr
cm
rain 24hr
cm
rain mn
cm
humidity
%
barometer
mb
20260507124641 8 156 0.0 3.2 0.00 0.15 0.00 72 968.2
20260507124138 7 167 0.0 1.6 0.00 0.15 0.00 76 968.3
20260507123857 7 283 0.0 1.6 0.00 0.15 0.00 74 968.3
20260507123139 7 283 0.0 1.6 0.00 0.15 0.00 76 968.3
20260507122636 7 284 0.0 1.6 0.00 0.15 0.00 75 968.2
20260507122135 7 236 0.0 0.0 0.00 0.15 0.00 75 968.2
20260507121635 7 213 0.0 0.0 0.00 0.18 0.00 76 968.2
20260507121134 6 213 0.0 0.0 0.00 0.23 0.00 77 968.2
20260507120632 6 324 0.0 0.0 0.00 0.25 0.00 77 968.2
20260507120131 6 39 0.0 0.0 0.00 0.28 0.00 78 968.1
20260507115629 6 39 0.0 0.0 0.00 0.30 0.00 79 968.1
20260507115130 5 39 0.0 1.6 0.00 0.33 0.00 79 968.0
20260507114631 5 40 0.0 1.6 0.00 0.36 0.00 81 967.9
20260507114609 5 331 0.0 0.0 0.00 0.41 0.00 83 967.9
20260507113627 5 355 0.0 0.0 0.00 0.43 0.00 85 967.9
20260507113127 5 355 0.0 0.0 0.00 0.46 0.00 85 967.9
20260507112845 4 355 0.0 0.0 0.00 0.48 0.00 87 967.9
20260507112127 4 355 0.0 0.0 0.00 0.51 0.00 88 967.9
20260507111625 3 355 0.0 0.0 0.00 0.51 0.00 88 967.9
20260507111124 3 355 0.0 0.0 0.00 0.51 0.00 90 967.7
20260507110625 3 355 0.0 0.0 0.00 0.53 0.00 91 967.7
20260507110347 2 355 0.0 0.0 0.00 0.53 0.00 92 967.6
20260507105846 2 355 0.0 0.0 0.00 0.53 0.00 92 967.6
20260507105123 2 355 0.0 0.0 0.00 0.53 0.00 92 967.6
20260507104621 2 355 0.0 0.0 0.00 0.53 0.00 92 967.5
20260507104122 2 355 0.0 0.0 0.00 0.53 0.00 92 967.6
20260507103827 2 355 0.0 0.0 0.00 0.53 0.00 90 967.5
20260507103707 2 355 0.0 0.0 0.00 0.53 0.00 91 967.5
20260507102617 2 355 0.0 0.0 0.00 0.53 0.00 90 967.5
20260507102116 2 355 0.0 0.0 0.00 0.56 0.00 90 967.3
20260507101616 2 355 0.0 0.0 0.00 0.56 0.00 90 967.4
20260507101117 2 355 0.0 0.0 0.00 0.56 0.00 88 967.4
20260507100617 2 355 0.0 0.0 0.00 0.56 0.00 88 967.4
20260507100117 2 355 0.0 0.0 0.00 0.56 0.00 87 967.3
20260507095617 2 355 0.0 0.0 0.00 0.58 0.00 87 967.3
20260507095117 2 355 0.0 0.0 0.00 0.58 0.00 86 967.3
20260507094837 3 355 0.0 0.0 0.00 0.58 0.00 86 967.3
20260507094115 3 355 0.0 0.0 0.00 0.58 0.00 86 967.3
20260507093841 3 355 0.0 0.0 0.00 0.58 0.00 85 967.3
20260507093120 3 355 0.0 0.0 0.00 0.58 0.00 85 967.2
20260507092620 3 355 0.0 0.0 0.00 0.58 0.00 85 967.1
20260507092119 3 355 0.0 0.0 0.00 0.58 0.00 84 967.1
20260507091618 3 355 0.0 0.0 0.00 0.58 0.00 84 967.2
20260507091118 3 355 0.0 0.0 0.00 0.58 0.00 83 967.2
20260507090618 3 355 0.0 0.0 0.00 0.58 0.00 82 967.2
20260507090339 4 355 0.0 0.0 0.00 0.58 0.00 82 967.2
20260507085839 4 355 0.0 0.0 0.00 0.58 0.00 81 967.2
20260507085117 5 355 0.0 0.0 0.00 0.58 0.00 80 967.1
20260507084617 5 355 0.0 0.0 0.00 0.58 0.00 78 967.1
20260507084115 5 355 0.0 0.0 0.00 0.58 0.00 78 967.2
20260507083837 5 355 0.0 0.0 0.00 0.58 0.00 76 967.3
20260507083117 6 355 0.0 0.0 0.00 0.58 0.00 75 967.2
20260507082615 6 355 0.0 0.0 0.00 0.58 0.00 74 967.3
20260507082116 6 355 0.0 0.0 0.00 0.58 0.00 73 967.3
20260507081613 6 355 0.0 0.0 0.00 0.58 0.00 71 967.3
20260507081114 7 355 0.0 0.0 0.00 0.58 0.00 70 967.4
20260507080611 7 355 0.0 3.2 0.00 0.58 0.00 68 967.3
20260507080111 7 355 0.0 3.2 0.00 0.58 0.00 67 967.3
20260507075610 7 304 0.0 3.2 0.00 0.58 0.00 67 967.3
20260507075111 7 71 0.0 3.2 0.00 0.58 0.00 67 967.3
20260507074608 7 22 0.0 3.2 0.00 0.58 0.00 68 967.2
20260507074108 7 22 0.0 3.2 0.00 0.58 0.00 67 967.3
20260507073608 7 22 0.0 1.6 0.00 0.58 0.00 68 967.3
20260507073106 7 338 0.0 0.0 0.00 0.58 0.00 68 967.4
20260507072602 7 300 0.0 0.0 0.00 0.58 0.00 67 967.4
20260507072059 7 300 0.0 0.0 0.00 0.58 0.00 68 967.3
20260507071602 8 300 0.0 0.0 0.00 0.58 0.00 66 967.2
20260507071054 8 19 0.0 3.2 0.00 0.58 0.00 68 967.3
20260507070548 8 20 0.0 3.2 0.00 0.58 0.00 67 967.2
20260507070043 8 31 0.0 4.8 0.00 0.58 0.00 65 967.2
20260507065537 8 34 0.0 4.8 0.00 0.58 0.00 66 967.2
20260507065248 8 35 0.0 0.0 0.00 0.58 0.00 67 967.3
20260507064525 8 35 0.0 4.8 0.00 0.58 0.00 66 967.3
20260507064242 8 35 0.0 4.8 0.00 0.58 0.00 65 967.3
20260507063513 8 20 0.0 4.8 0.00 0.58 0.00 65 967.3
20260507063007 8 320 0.0 3.2 0.00 0.58 0.00 66 967.3
20260507062723 8 35 0.0 0.0 0.00 0.58 0.00 66 967.4
20260507062438 8 35 0.0 1.6 0.00 0.58 0.00 66 967.5
20260507061449 8 35 0.0 1.6 0.00 0.58 0.00 65 967.5
20260507060942 8 34 0.0 1.6 0.00 0.58 0.00 65 967.6
20260507060702 8 22 0.0 8.0 0.00 0.58 0.00 65 967.7
20260507060154 8 22 0.0 8.0 0.00 0.58 0.00 65 967.7
20260507055425 8 35 0.0 3.2 0.00 0.58 0.00 65 967.6
20260507054918 8 35 0.0 3.2 0.00 0.58 0.00 65 967.6
20260507054901 8 266 0.0 3.2 0.00 0.58 0.00 64 967.6
20260507053915 8 17 0.0 3.2 0.00 0.58 0.00 64 967.6
20260507053623 8 28 0.0 4.8 0.00 0.58 0.00 65 967.5
20260507052859 8 28 0.0 4.8 0.00 0.58 0.00 65 967.5
20260507052356 8 294 0.0 1.6 0.00 0.58 0.00 64 967.6
20260507051854 8 326 0.0 1.6 0.00 0.58 0.00 65 967.7
20260507051351 8 32 0.0 1.6 0.00 0.58 0.00 68 967.8
20260507050851 8 34 0.0 0.0 0.00 0.58 0.00 67 967.8
20260507050347 8 34 0.0 0.0 0.00 0.58 0.00 67 967.7
20260507045846 9 34 0.0 1.6 0.00 0.58 0.00 66 967.7
20260507045343 9 34 0.0 3.2 0.00 0.58 0.00 64 967.6
20260507044842 9 32 0.0 4.8 0.00 0.58 0.00 65 967.7
20260507044600 9 28 0.0 4.8 0.00 0.58 0.00 64 967.7
20260507043841 9 39 0.0 4.8 0.00 0.58 0.00 66 967.7
20260507043342 9 261 0.0 3.2 0.00 0.58 0.00 66 967.5
20260507042845 9 43 0.0 3.2 0.00 0.58 0.00 68 967.7
20260507042343 9 97 0.0 0.0 0.00 0.58 0.00 70 967.7
20260507041841 9 97 0.0 3.2 0.00 0.58 0.00 71 967.6
20260507041341 9 97 0.0 3.2 0.00 0.58 0.00 70 967.4
20260507040841 9 30 0.0 1.6 0.00 0.58 0.00 69 967.2
20260507040339 9 30 1.6 4.8 0.00 0.58 0.00 70 967.2
20260507035838 10 30 1.6 4.8 0.00 0.58 0.58 69 967.4
20260507035602 10 17 0.0 3.2 0.00 0.58 0.58 69 967.4
20260507034832 10 34 0.0 1.6 0.00 0.58 0.58 68 967.3
20260507034326 10 22 0.0 4.8 0.00 0.58 0.58 69 967.5
20260507033820 10 355 1.6 11.3 0.00 0.58 0.58 69 967.5
20260507033313 10 319 3.2 11.3 0.00 0.58 0.58 67 967.3
20260507032808 10 50 3.2 11.3 0.00 0.58 0.58 67 967.3
20260507032305 10 13 3.2 11.3 0.00 0.58 0.58 67 967.2
20260507031756 10 13 1.6 6.4 0.00 0.58 0.58 68 967.2
20260507031250 10 221 1.6 9.7 0.00 0.58 0.58 69 967.3
20260507031004 10 50 1.6 9.7 0.00 0.58 0.58 69 967.3
20260507030237 10 263 1.6 9.7 0.00 0.58 0.58 70 967.1
20260507025732 10 34 1.6 9.7 0.00 0.58 0.58 73 967.0
20260507025455 10 349 3.2 14.5 0.00 0.58 0.58 73 967.1
20260507024719 10 56 3.2 14.5 0.00 0.58 0.58 75 967.0
20260507024214 10 334 1.6 14.5 0.00 0.58 0.58 76 967.0
20260507023708 10 28 1.6 9.7 0.00 0.58 0.58 78 966.9
20260507023201 10 317 1.6 9.7 0.00 0.58 0.58 78 967.0
20260507022655 10 9 1.6 9.7 0.00 0.58 0.58 78 966.7
20260507022150 10 55 1.6 9.7 0.00 0.58 0.58 80 966.6
20260507021644 10 51 1.6 11.3 0.00 0.58 0.58 81 966.5
20260507021138 10 19 1.6 11.3 0.00 0.58 0.58 81 966.6
20260507020637 11 78 1.6 8.0 0.00 0.58 0.58 81 966.6
20260507020126 11 10 1.6 6.4 0.00 0.58 0.58 82 966.6
20260507015620 11 101 1.6 6.4 0.00 0.58 0.58 83 966.6
20260507015114 11 28 0.0 6.4 0.00 0.58 0.58 83 966.8
20260507014608 11 28 0.0 0.0 0.00 0.58 0.58 84 966.9
20260507014102 11 46 0.0 0.0 0.00 0.58 0.58 83 967.1
20260507013759 11 28 0.0 3.2 0.00 0.58 0.58 84 967.0
20260507013647 11 42 0.0 0.0 0.00 0.58 0.58 84 967.0
20260507012544 11 28 0.0 3.2 0.00 0.58 0.58 83 967.0
20260507012255 11 13 0.0 3.2 0.00 0.58 0.58 83 967.0
20260507011532 11 26 0.0 3.2 0.00 0.58 0.58 84 967.0
20260507011454 11 350 0.0 8.0 0.00 0.58 0.58 83 967.2
20260507011026 11 15 0.0 8.0 0.00 0.58 0.58 83 967.0
20260507010015 11 30 0.0 4.8 0.00 0.58 0.58 83 967.1
20260507005508 11 317 0.0 4.8 0.00 0.58 0.58 83 966.9
20260507005002 11 12 0.0 4.8 0.00 0.58 0.58 83 966.8
20260507004456 11 117 0.0 3.2 0.00 0.58 0.58 84 966.9
20260507003950 11 39 0.0 3.2 0.00 0.58 0.58 84 967.1
20260507003709 11 9 0.0 1.6 0.00 0.58 0.58 84 966.9
20260507002938 11 33 0.0 1.6 0.00 0.58 0.58 84 966.8
20260507002915 11 14 0.0 3.2 0.00 0.58 0.58 86 966.7
20260507001926 11 26 1.6 8.0 0.00 0.58 0.58 85 966.6
20260507001420 11 73 0.0 8.0 0.00 0.58 0.58 85 966.4
20260507000914 11 38 0.0 3.2 0.00 0.58 0.58 85 966.3
20260507000636 11 340 0.0 3.2 0.00 0.58 0.58 85 966.3
20260506235902 11 329 1.6 9.7 0.00 0.58 0.58 85 966.2
20260506235356 11 32 1.6 9.7 0.00 0.58 0.58 84 965.9
20260506234849 11 169 0.0 6.4 0.00 0.58 0.58 84 966.0
20260506234344 11 324 1.6 8.0 0.00 0.58 0.58 84 965.9
20260506233838 11 76 1.6 8.0 0.00 0.58 0.58 84 965.8
20260506233332 11 30 0.0 8.0 0.00 0.58 0.58 84 965.7
20260506232826 11 313 0.0 8.0 0.00 0.58 0.58 85 965.7
20260506232320 11 294 1.6 6.4 0.00 0.58 0.58 85 965.4
20260506231820 11 11 1.6 6.4 0.00 0.58 0.58 84 965.4
20260506231316 11 51 0.0 6.4 0.00 0.58 0.58 84 965.5
20260506230817 11 24 1.6 8.0 0.00 0.58 0.58 84 965.3
20260506230320 11 57 1.6 8.0 0.00 0.58 0.58 84 965.4
20260506225815 11 302 3.2 12.9 0.00 0.58 0.58 84 965.6
20260506225315 11 18 3.2 12.9 0.00 0.58 0.58 84 965.6
20260506224816 12 78 3.2 14.5 0.00 0.58 0.58 84 965.6
20260506224538 12 42 1.6 14.5 0.00 0.58 0.58 85 965.6
20260506223815 12 311 3.2 11.3 0.00 0.58 0.58 85 965.5
20260506223316 12 342 3.2 11.3 0.00 0.58 0.58 84 965.4
20260506223134 12 66 1.6 8.0 0.00 0.58 0.58 84 965.2
20260506223041 12 297 1.6 9.7 0.00 0.58 0.58 84 965.0
20260506221813 12 325 1.6 9.7 0.00 0.58 0.58 84 964.9
20260506221313 13 269 1.6 8.0 0.00 0.58 0.58 83 964.9
20260506220813 13 265 1.6 6.4 0.00 0.58 0.58 84 964.8
20260506220313 13 271 1.6 6.4 0.00 0.58 0.58 83 964.8
20260506215808 13 305 1.6 6.4 0.00 0.58 0.58 83 964.8
20260506215530 13 296 1.6 8.0 0.00 0.58 0.58 82 964.8
20260506215032 13 307 1.6 8.0 0.00 0.58 0.58 83 964.7
20260506214305 13 17 1.6 16.1 0.00 0.58 0.58 83 964.7
20260506213805 13 320 3.2 16.1 0.00 0.58 0.58 83 964.6
20260506213304 13 315 3.2 11.3 0.00 0.58 0.58 83 964.4
20260506212806 14 248 3.2 9.7 0.00 0.58 0.58 82 964.4
20260506212307 14 252 3.2 9.7 0.00 0.58 0.58 82 964.3
20260506211804 14 284 1.6 9.7 0.00 0.58 0.58 81 964.1
20260506211303 15 294 1.6 9.7 0.00 0.58 0.58 82 963.9
20260506210802 15 303 1.6 9.7 0.00 0.58 0.58 81 963.8
20260506210303 15 292 1.6 9.7 0.00 0.58 0.58 82 963.8
20260506205803 15 298 3.2 8.0 0.00 0.58 0.58 84 963.8
20260506205300 15 303 3.2 11.3 0.00 0.58 0.58 83 963.8
20260506204802 15 309 1.6 11.3 0.00 0.58 0.58 82 963.8
20260506204258 15 311 1.6 9.7 0.00 0.61 0.58 84 963.7
20260506203756 15 209 1.6 8.0 0.00 0.69 0.58 84 963.7
20260506203255 15 207 0.0 4.8 0.00 0.69 0.58 84 963.6
20260506202755 15 291 0.0 6.4 0.00 0.69 0.58 85 963.6
20260506202255 15 207 1.6 11.3 0.00 0.69 0.58 85 963.6
20260506201753 15 297 1.6 11.3 0.00 0.69 0.58 86 963.5
20260506201252 15 267 1.6 9.7 0.00 0.69 0.58 86 963.5
20260506200754 15 313 1.6 9.7 0.00 0.69 0.58 87 963.4
20260506200254 15 237 1.6 11.3 0.00 0.69 0.58 87 963.4
20260506195753 15 239 1.6 12.9 0.00 0.69 0.58 87 963.3
20260506195726 15 284 1.6 8.0 0.00 0.69 0.58 88 963.2
20260506195345 15 226 1.6 12.9 0.00 0.69 0.58 87 963.1
20260506194253 15 220 3.2 12.9 0.00 0.69 0.58 88 963.1
20260506193753 15 245 4.8 12.9 0.00 0.69 0.58 88 963.0
20260506193252 15 300 3.2 12.9 0.00 0.69 0.58 87 962.9
20260506192752 16 299 1.6 9.7 0.00 0.69 0.58 87 962.9
20260506192512 16 217 1.6 6.4 0.00 0.69 0.58 86 962.8
20260506191754 16 233 1.6 6.4 0.00 0.69 0.58 87 962.7
20260506191252 16 298 1.6 8.0 0.00 0.69 0.58 88 962.8
20260506190754 16 219 0.0 8.0 0.00 0.69 0.58 88 962.7
20260506190518 16 254 0.0 3.2 0.00 0.69 0.58 89 962.6
20260506185753 16 267 0.0 6.4 0.00 0.69 0.58 88 962.6
20260506185251 16 150 0.0 6.4 0.00 0.69 0.58 89 962.6
20260506184752 16 285 0.0 3.2 0.00 0.69 0.58 91 962.5
20260506184250 16 200 0.0 4.8 0.03 0.69 0.58 92 962.6
20260506183751 16 214 0.0 4.8 0.03 0.69 0.58 93 962.6
20260506183746 15 187 0.0 8.0 0.03 0.69 0.58 93 962.7
20260506182751 15 224 0.0 8.0 0.03 0.69 0.58 95 962.7
20260506182246 15 229 0.0 3.2 0.03 0.69 0.58 95 962.6
20260506182223 15 278 0.0 6.4 0.05 0.69 0.58 95 962.7
20260506181236 15 295 0.0 6.4 0.05 0.69 0.58 94 962.6
20260506180732 15 211 1.6 11.3 0.05 0.69 0.58 95 962.6
20260506180234 15 300 0.0 11.3 0.05 0.69 0.58 96 962.7
20260506175951 15 298 0.0 6.4 0.05 0.69 0.58 97 962.6
20260506175228 15 207 0.0 6.4 0.05 0.69 0.58 97 962.6
20260506174728 15 299 0.0 3.2 0.05 0.69 0.58 97 962.6
20260506174449 15 309 0.0 6.4 0.03 0.66 0.56 96 962.6
20260506173728 15 309 0.0 6.4 0.03 0.66 0.56 96 962.4
20260506173225 15 167 0.0 4.8 0.03 0.66 0.56 96 962.4
20260506173212 15 234 0.0 3.2 0.03 0.66 0.56 96 962.3
20260506172222 15 258 0.0 0.0 0.03 0.66 0.56 95 962.4
20260506171722 15 346 0.0 3.2 0.00 0.64 0.53 95 962.3
20260506171218 15 143 0.0 6.4 0.00 0.64 0.53 94 962.3
20260506171200 15 227 0.0 6.4 0.00 0.64 0.53 94 962.2
20260506170439 15 220 0.0 1.6 0.00 0.64 0.53 94 962.2
20260506165715 16 215 0.0 4.8 0.00 0.64 0.53 93 962.1
20260506165437 16 80 0.0 4.8 0.03 0.64 0.53 93 962.1
20260506164715 16 252 0.0 8.0 0.03 0.64 0.53 94 962.0
20260506164215 16 215 0.0 8.0 0.03 0.64 0.53 95 962.1
20260506163709 16 213 0.0 4.8 0.03 0.64 0.53 95 962.2
20260506163203 16 223 0.0 4.8 0.03 0.64 0.53 96 962.2
20260506162656 16 173 0.0 1.6 0.03 0.64 0.53 96 962.2
20260506162415 15 238 0.0 3.2 0.03 0.64 0.53 96 962.2
20260506161645 15 188 0.0 4.8 0.03 0.64 0.53 96 962.3
20260506161139 15 209 0.0 4.8 0.03 0.64 0.53 97 962.2
20260506160853 15 211 0.0 3.2 0.03 0.64 0.53 98 962.2
20260506160127 15 253 0.0 0.0 0.03 0.64 0.53 97 962.2
20260506155850 15 192 0.0 0.0 0.03 0.64 0.53 97 962.2
20260506155115 14 171 0.0 3.2 0.00 0.61 0.51 97 962.3
20260506154609 14 236 0.0 3.2 0.00 0.61 0.51 97 962.3
20260506154328 14 268 0.0 0.0 0.00 0.61 0.51 97 962.3
20260506153557 14 331 0.0 6.4 0.00 0.61 0.51 97 962.3
20260506153051 14 289 0.0 4.8 0.00 0.61 0.51 96 962.2
20260506152544 14 149 0.0 1.6 0.00 0.61 0.51 96 962.2
20260506152039 14 192 0.0 1.6 0.00 0.61 0.51 96 962.1
20260506151533 14 211 0.0 1.6 0.00 0.61 0.51 96 962.1
20260506151027 14 200 0.0 4.8 0.03 0.61 0.51 96 962.1
20260506150521 14 200 0.0 4.8 0.03 0.61 0.51 96 962.0
20260506150015 14 258 0.0 4.8 0.03 0.61 0.51 96 962.0
20260506145508 14 246 0.0 4.8 0.03 0.61 0.51 96 962.0
20260506145003 13 215 0.0 1.6 0.03 0.61 0.51 97 961.8
20260506144457 13 220 0.0 1.6 0.03 0.61 0.51 97 961.8
20260506143951 13 265 0.0 4.8 0.05 0.61 0.51 97 961.8
20260506143702 13 277 0.0 4.8 0.05 0.61 0.51 97 961.8
20260506142939 13 302 0.0 1.6 0.05 0.61 0.51 97 961.9
20260506142433 13 286 0.0 3.2 0.05 0.61 0.51 97 961.8
20260506141927 13 145 0.0 3.2 0.05 0.61 0.51 97 961.7
20260506141421 13 213 0.0 3.2 0.08 0.61 0.51 97 961.6
20260506140915 13 250 0.0 3.2 0.05 0.58 0.48 97 961.7
20260506140409 13 215 0.0 0.0 0.05 0.58 0.48 97 961.7
20260506135903 13 161 0.0 3.2 0.05 0.58 0.48 97 961.8
20260506135356 13 273 0.0 3.2 0.05 0.58 0.48 97 961.6
20260506135119 13 223 0.0 1.6 0.05 0.58 0.48 97 961.8
20260506134345 13 284 0.0 1.6 0.05 0.58 0.48 97 961.8
20260506133838 13 197 0.0 0.0 0.03 0.56 0.46 97 961.8
20260506133559 13 198 0.0 0.0 0.03 0.56 0.46 97 961.8
20260506133056 13 195 0.0 0.0 0.03 0.56 0.46 97 961.8
20260506132321 13 195 0.0 0.0 0.03 0.56 0.46 97 962.0
20260506132032 13 196 0.0 0.0 0.05 0.56 0.46 97 962.0
20260506131309 13 196 0.0 0.0 0.05 0.53 0.43 97 962.0
20260506131023 13 196 0.0 0.0 0.10 0.53 0.43 97 962.0
20260506130258 13 197 0.0 0.0 0.13 0.53 0.43 96 962.0
20260506130014 13 257 0.0 0.0 0.15 0.53 0.43 96 962.0
20260506125733 13 164 0.0 3.2 0.18 0.53 0.43 96 961.9